Hourly Data Report for September 11, 2017

All times are specified in Local Standard Time (LST). Add 1 hour to adjust for Daylight Saving Time where and when it is observed.

EAST POINT (AUT)
PRINCE EDWARD ISLAND

46°27'36.000" N
61°59'18.000" W
7.70 m
8300418
71412
WEP

Download Data

Hourly Data (September 2017)
Hourly Data Report for September 11, 2017
Temp Definition
°C
Dew Point Temp Definition
°C
Rel Hum Definition
%
Wind Dir Definition
10's deg

Wind Spd Definition
km/h
Visibility Definition
km
Stn Press Definition
kPa
Hmdx Definition


Wind Chill Definition


Weather Definition


TIME
00:00 15.1 11.0 77 33 25   101.66     LegendNANA
01:00 15.2 11.6 79 33 29   101.56     LegendNANA
02:00 15.4 11.8 79 32 26   101.52     LegendNANA
03:00 15.5 12.0 80 33 27   101.45     LegendNANA
04:00 15.6 10.0 69 34 29   101.40     LegendNANA
05:00 15.5 9.9 69 34 32   101.36     LegendNANA
06:00 15.6 11.4 76 34 29   101.43     LegendNANA
07:00 15.6 11.9 79 34 32   101.35     LegendNANA
08:00 15.7 12.6 82 35 28   101.45     LegendNANA
09:00 15.6 12.4 81 36 25   101.44     LegendNANA
10:00 15.9 12.2 79 35 25   101.40     LegendNANA
11:00 16.0 11.2 74 34 30   101.29     LegendNANA
12:00 16.2 11.4 73 35 33   101.25     LegendNANA
13:00 16.2 12.3 78 35 30   101.21     LegendNANA
14:00 17.0 11.5 70 35 38   101.07     LegendNANA
15:00 16.6 13.0 80 35 42   101.03     LegendNANA
16:00 16.0 12.5 80 36 52   100.97     LegendNANA
17:00 16.2 12.4 78 36 50   100.93     LegendNANA
18:00 15.8 12.6 81 35 52   100.88     LegendNANA
19:00 16.0 12.5 80 36 50   100.97     LegendNANA
20:00 16.2 12.4 78 1 48   101.02     LegendNANA
21:00 16.4 11.9 75 1 48   101.00     LegendNANA
22:00 16.3 11.7 74 1 49   100.95     LegendNANA
23:00 16.3 11.8 75 2 49   100.92     LegendNANA

Notes on Data Quality.

Legend

  • E = Estimated
  • M = Missing
  • NA = Not Available
  • ‡ = Partner data that is not subject to review by the National Climate Archives
Date modified: